Regional Weather Roundup
Issued by NWS

Home | Current Version | Previous Version | Text Only | Print | Product List | Glossary Off
Versions: 1 2 3 4 5 6 7 8 9 10 11 12 13 14 15 16 17 18 19 20 21 22 23 24 25 26 27 28 29 30 31 32 33 34 35 36 37 38 39 40 41 42 43 44 45 46 47 48 49 50

000
ASUS43 KBIS 041202
RWRND

NORTH DAKOTA REGIONAL WEATHER ROUNDUP
NATIONAL WEATHER SERVICE BISMARCK ND
700 AM CDT TUE AUG 04 2015

NOTE: "FAIR" INDICATES FEW OR NO CLOUDS BELOW 12,000 FEET WITH NO
SIGNIFICANT WEATHER AND/OR OBSTRUCTIONS TO VISIBILITY.


NDZ001>003-009>011-017-041300-
NORTHWEST NORTH DAKOTA

CITY           SKY/WX    TMP DP  RH WIND       PRES   REMARKS
WILLISTON      PTCLDY    62  50  64 E5        29.96S
6HR MIN TEMP:  57; 6HR MAX TEMP:  66;

MINOT          CLEAR     52  49  89 SW7       30.00R
MINOT AFB      CLEAR     49  49  99 CALM      29.99R
$$

NDZ018>021-031>035-040>046-041300-
SOUTHWEST NORTH DAKOTA

CITY           SKY/WX    TMP DP  RH WIND       PRES   REMARKS
BISMARCK       PTCLDY    52  49  89 E3        30.01R
6HR MIN TEMP:  49; 6HR MAX TEMP:  58;

DICKINSON      PTCLDY    53  48  83 E10       29.96S
GARRISON         N/A     53  50  89 CALM      30.00R
6HR MIN TEMP:  51; 6HR MAX TEMP:  61;

HETTINGER ARPT CLEAR     56  50  80 E8        29.97R
$$

NDZ004>008-012>016-024-026-027-054-041300-
NORTHEAST NORTH DAKOTA

CITY           SKY/WX    TMP DP  RH WIND       PRES   REMARKS
GRAND FORKS    CLEAR     51  49  92 N5        29.98R
GRND FRKS AFB  FAIR      50  48  92 N2        29.99R
DEVILS LAKE    CLEAR     52  45  76 NE5       30.00R
$$

NDZ022-023-025-028>030-036>039-047>053-041300-
SOUTHEAST NORTH DAKOTA

CITY           SKY/WX    TMP DP  RH WIND       PRES   REMARKS
FARGO          CLEAR     54  47  77 NW3       29.99R
6HR MIN TEMP:  50; 6HR MAX TEMP:  61;

JAMESTOWN      CLEAR     51  50  96 CALM      30.02R
$$




USA.gov is the U.S. government's official web portal to all federal, state and local government web resources and services.